Time,TemperatureF,DewpointF,PressureIn,WindDirection,WindDirectionDegrees,WindSpeedMPH,WindSpeedGustMPH,Humidity,HourlyPrecipIn,Conditions,Clouds,dailyrainin,SoftwareType,DateUTC
2013-09-06 00:01:00,45.6,44.0,29.91,NE,45,1.0,2.0,94,0.00,,,0.00,Rainwise IP-100,2013-09-06 04:01:00,
2013-09-06 00:06:00,45.4,43.0,29.91,NE,45,1.0,2.0,94,0.00,,,0.00,Rainwise IP-100,2013-09-06 04:06:00,
2013-09-06 00:11:00,45.4,44.0,29.91,NE,45,1.0,2.0,97,0.00,,,0.00,Rainwise IP-100,2013-09-06 04:11:00,
2013-09-06 00:16:00,45.8,45.0,29.91,NE,45,1.0,2.0,96,0.00,,,0.00,Rainwise IP-100,2013-09-06 04:16:00,
2013-09-06 00:21:00,45.9,45.0,29.90,NE,45,0.0,2.0,97,0.00,,,0.00,Rainwise IP-100,2013-09-06 04:21:00,
2013-09-06 00:26:00,46.3,45.0,29.90,NE,45,0.0,1.0,98,0.00,,,0.00,Rainwise IP-100,2013-09-06 04:26:00,
2013-09-06 00:31:00,46.5,46.0,29.90,ESE,112,0.0,1.0,98,0.00,,,0.00,Rainwise IP-100,2013-09-06 04:31:00,
2013-09-06 00:37:00,46.7,47.0,29.90,ESE,112,2.0,3.0,99,0.00,,,0.00,Rainwise IP-100,2013-09-06 04:37:00,
2013-09-06 00:42:00,46.8,47.0,29.91,SE,135,2.0,2.0,99,0.00,,,0.00,Rainwise IP-100,2013-09-06 04:42:00,
2013-09-06 00:47:00,46.8,45.0,29.91,SE,135,1.0,2.0,95,0.00,,,0.00,Rainwise IP-100,2013-09-06 04:47:00,
2013-09-06 00:52:00,46.6,45.0,29.91,SE,135,0.0,1.0,94,0.00,,,0.00,Rainwise IP-100,2013-09-06 04:52:00,
2013-09-06 00:57:00,46.1,45.0,29.91,SE,135,0.0,0.0,96,0.00,,,0.00,Rainwise IP-100,2013-09-06 04:57:00,
2013-09-06 01:02:00,45.8,46.0,29.91,SE,135,0.0,1.0,100,0.00,,,0.00,Rainwise IP-100,2013-09-06 05:02:00,
2013-09-06 01:07:00,45.7,46.0,29.91,SE,135,0.0,1.0,100,0.00,,,0.00,Rainwise IP-100,2013-09-06 05:07:00,
2013-09-06 01:12:00,45.6,46.0,29.91,SE,135,0.0,0.0,99,0.00,,,0.00,Rainwise IP-100,2013-09-06 05:12:00,
2013-09-06 01:18:00,45.6,46.0,29.91,SE,135,0.0,1.0,100,0.00,,,0.00,Rainwise IP-100,2013-09-06 05:18:00,
2013-09-06 01:23:00,45.4,45.0,29.91,SE,135,0.0,1.0,100,0.00,,,0.00,Rainwise IP-100,2013-09-06 05:23:00,
2013-09-06 01:28:00,45.6,46.0,29.91,SE,135,1.0,2.0,100,0.00,,,0.00,Rainwise IP-100,2013-09-06 05:28:00,
2013-09-06 01:33:00,45.8,46.0,29.90,SE,135,0.0,2.0,100,0.00,,,0.00,Rainwise IP-100,2013-09-06 05:33:00,
2013-09-06 01:38:00,45.9,45.0,29.91,SE,135,0.0,0.0,98,0.00,,,0.00,Rainwise IP-100,2013-09-06 05:38:00,
2013-09-06 01:43:00,45.8,46.0,29.91,SE,135,1.0,1.0,99,0.00,,,0.00,Rainwise IP-100,2013-09-06 05:43:00,
2013-09-06 01:48:00,45.8,45.0,29.91,SE,135,1.0,2.0,98,0.00,,,0.00,Rainwise IP-100,2013-09-06 05:48:00,
2013-09-06 01:54:00,45.8,45.0,29.91,SE,135,0.0,2.0,98,0.00,,,0.00,Rainwise IP-100,2013-09-06 05:54:00,
2013-09-06 01:59:00,45.4,44.0,29.91,SE,135,0.0,0.0,98,0.00,,,0.00,Rainwise IP-100,2013-09-06 05:59:00,
2013-09-06 02:04:00,44.9,45.0,29.91,SE,135,0.0,1.0,100,0.00,,,0.00,Rainwise IP-100,2013-09-06 06:04:00,
2013-09-06 02:09:00,44.5,45.0,29.91,SE,135,0.0,0.0,100,0.00,,,0.00,Rainwise IP-100,2013-09-06 06:09:00,
2013-09-06 02:14:00,43.9,44.0,29.91,SE,135,0.0,1.0,100,0.00,,,0.00,Rainwise IP-100,2013-09-06 06:14:00,
2013-09-06 02:19:00,44.3,44.0,29.91,SE,135,1.0,2.0,100,0.00,,,0.00,Rainwise IP-100,2013-09-06 06:19:00,
2013-09-06 02:24:00,44.7,45.0,29.91,SE,135,2.0,2.0,100,0.00,,,0.00,Rainwise IP-100,2013-09-06 06:24:00,
2013-09-06 02:29:00,44.9,45.0,29.91,SE,135,1.0,3.0,100,0.00,,,0.00,Rainwise IP-100,2013-09-06 06:29:00,
2013-09-06 02:35:00,45.4,45.0,29.91,SSE,157,3.0,4.0,100,0.00,,,0.00,Rainwise IP-100,2013-09-06 06:35:00,
2013-09-06 02:40:00,45.8,45.0,29.91,SSE,157,2.0,4.0,97,0.00,,,0.00,Rainwise IP-100,2013-09-06 06:40:00,
2013-09-06 02:45:00,45.8,45.0,29.91,SSE,157,0.0,3.0,97,0.00,,,0.00,Rainwise IP-100,2013-09-06 06:45:00,
2013-09-06 02:50:00,45.5,45.0,29.91,SSE,157,1.0,2.0,98,0.00,,,0.00,Rainwise IP-100,2013-09-06 06:50:00,
2013-09-06 02:55:00,45.4,45.0,29.92,SSE,157,1.0,4.0,100,0.00,,,0.00,Rainwise IP-100,2013-09-06 06:55:00,
2013-09-06 03:00:00,45.2,45.0,29.92,SSE,157,0.0,2.0,100,0.00,,,0.00,Rainwise IP-100,2013-09-06 07:00:00,
2013-09-06 03:05:00,45.2,45.0,29.92,SSE,157,2.0,2.0,100,0.00,,,0.00,Rainwise IP-100,2013-09-06 07:05:00,
2013-09-06 03:11:00,45.2,45.0,29.92,SSE,157,1.0,3.0,100,0.00,,,0.00,Rainwise IP-100,2013-09-06 07:11:00,
2013-09-06 03:16:00,44.9,45.0,29.92,SSE,157,0.0,2.0,100,0.00,,,0.00,Rainwise IP-100,2013-09-06 07:16:00,
2013-09-06 03:21:00,44.6,45.0,29.92,SSE,157,1.0,2.0,100,0.00,,,0.00,Rainwise IP-100,2013-09-06 07:21:00,
2013-09-06 03:26:00,44.5,45.0,29.92,SSE,157,0.0,2.0,100,0.00,,,0.00,Rainwise IP-100,2013-09-06 07:26:00,
2013-09-06 03:31:00,44.3,44.0,29.92,SSE,157,1.0,3.0,100,0.00,,,0.00,Rainwise IP-100,2013-09-06 07:31:00,
2013-09-06 03:36:00,44.3,44.0,29.92,SSE,157,0.0,2.0,100,0.00,,,0.00,Rainwise IP-100,2013-09-06 07:36:00,
2013-09-06 03:41:00,43.9,44.0,29.93,SSE,157,0.0,1.0,100,0.00,,,0.00,Rainwise IP-100,2013-09-06 07:41:00,
2013-09-06 03:46:00,43.6,44.0,29.93,ENE,67,0.0,4.0,100,0.00,,,0.00,Rainwise IP-100,2013-09-06 07:46:00,
2013-09-06 03:52:00,43.3,43.0,29.93,ENE,67,0.0,1.0,100,0.00,,,0.00,Rainwise IP-100,2013-09-06 07:52:00,
2013-09-06 03:57:00,42.9,43.0,29.93,ENE,67,0.0,1.0,100,0.00,,,0.00,Rainwise IP-100,2013-09-06 07:57:00,
2013-09-06 04:02:00,42.9,43.0,29.93,ENE,67,1.0,2.0,100,0.00,,,0.00,Rainwise IP-100,2013-09-06 08:02:00,
2013-09-06 04:07:00,42.8,43.0,29.92,ENE,67,0.0,2.0,100,0.00,,,0.00,Rainwise IP-100,2013-09-06 08:07:00,
2013-09-06 04:12:00,43.3,43.0,29.93,East,90,1.0,2.0,100,0.00,,,0.00,Rainwise IP-100,2013-09-06 08:12:00,
2013-09-06 04:17:00,43.6,44.0,29.93,East,90,0.0,2.0,100,0.00,,,0.00,Rainwise IP-100,2013-09-06 08:17:00,
2013-09-06 04:22:00,43.5,44.0,29.93,East,90,1.0,1.0,100,0.00,,,0.00,Rainwise IP-100,2013-09-06 08:22:00,
2013-09-06 04:28:00,43.8,44.0,29.93,East,90,0.0,2.0,100,0.00,,,0.00,Rainwise IP-100,2013-09-06 08:28:00,
2013-09-06 04:33:00,43.8,44.0,29.93,East,90,1.0,1.0,100,0.00,,,0.00,Rainwise IP-100,2013-09-06 08:33:00,
2013-09-06 04:38:00,43.7,44.0,29.93,East,90,1.0,1.0,100,0.00,,,0.00,Rainwise IP-100,2013-09-06 08:38:00,
2013-09-06 04:43:00,43.7,44.0,29.93,East,90,1.0,3.0,100,0.00,,,0.00,Rainwise IP-100,2013-09-06 08:43:00,
2013-09-06 04:48:00,43.5,44.0,29.93,East,90,0.0,2.0,100,0.00,,,0.00,Rainwise IP-100,2013-09-06 08:48:00,
2013-09-06 04:53:00,43.2,43.0,29.94,East,90,2.0,3.0,100,0.00,,,0.00,Rainwise IP-100,2013-09-06 08:53:00,
2013-09-06 04:58:00,43.2,43.0,29.94,East,90,0.0,2.0,100,0.00,,,0.00,Rainwise IP-100,2013-09-06 08:58:00,
2013-09-06 05:03:00,43.2,43.0,29.94,East,90,0.0,1.0,100,0.00,,,0.00,Rainwise IP-100,2013-09-06 09:03:00,
2013-09-06 05:09:00,42.9,43.0,29.94,East,90,0.0,0.0,100,0.00,,,0.00,Rainwise IP-100,2013-09-06 09:09:00,
2013-09-06 05:14:00,42.7,43.0,29.94,East,90,0.0,2.0,100,0.00,,,0.00,Rainwise IP-100,2013-09-06 09:14:00,
2013-09-06 05:19:00,42.5,43.0,29.94,East,90,0.0,0.0,100,0.00,,,0.00,Rainwise IP-100,2013-09-06 09:19:00,
2013-09-06 05:24:00,42.2,42.0,29.94,East,90,0.0,0.0,100,0.00,,,0.00,Rainwise IP-100,2013-09-06 09:24:00,
2013-09-06 05:29:00,41.9,42.0,29.94,East,90,1.0,2.0,100,0.00,,,0.00,Rainwise IP-100,2013-09-06 09:29:00,
2013-09-06 05:34:00,42.4,42.0,29.94,East,90,1.0,2.0,100,0.00,,,0.00,Rainwise IP-100,2013-09-06 09:34:00,
2013-09-06 05:39:00,42.8,43.0,29.94,East,90,0.0,2.0,100,0.00,,,0.00,Rainwise IP-100,2013-09-06 09:39:00,
2013-09-06 05:45:00,42.9,43.0,29.94,SSE,157,2.0,4.0,100,0.00,,,0.00,Rainwise IP-100,2013-09-06 09:45:00,
2013-09-06 05:50:00,42.8,43.0,29.95,SSE,157,0.0,3.0,100,0.00,,,0.00,Rainwise IP-100,2013-09-06 09:50:00,
2013-09-06 05:55:00,42.6,43.0,29.95,SSE,157,2.0,2.0,100,0.00,,,0.00,Rainwise IP-100,2013-09-06 09:55:00,
2013-09-06 06:00:00,42.6,43.0,29.95,SSE,157,0.0,2.0,100,0.00,,,0.00,Rainwise IP-100,2013-09-06 10:00:00,
2013-09-06 06:05:00,42.6,43.0,29.95,SSE,157,1.0,2.0,100,0.00,,,0.00,Rainwise IP-100,2013-09-06 10:05:00,
2013-09-06 06:10:00,42.5,43.0,29.95,SSE,157,0.0,2.0,100,0.00,,,0.00,Rainwise IP-100,2013-09-06 10:10:00,
2013-09-06 06:15:00,42.3,42.0,29.95,SSE,157,1.0,2.0,100,0.00,,,0.00,Rainwise IP-100,2013-09-06 10:15:00,
2013-09-06 06:20:00,42.5,43.0,29.95,SSE,157,2.0,3.0,100,0.00,,,0.00,Rainwise IP-100,2013-09-06 10:20:00,
2013-09-06 06:26:00,42.5,43.0,29.95,SSE,157,2.0,2.0,100,0.00,,,0.00,Rainwise IP-100,2013-09-06 10:26:00,
2013-09-06 06:31:00,42.6,43.0,29.95,SSE,157,3.0,3.0,100,0.00,,,0.00,Rainwise IP-100,2013-09-06 10:31:00,
2013-09-06 06:36:00,42.6,43.0,29.95,SSE,157,1.0,4.0,100,0.00,,,0.00,Rainwise IP-100,2013-09-06 10:36:00,
2013-09-06 06:41:00,42.6,43.0,29.96,SSE,157,1.0,3.0,100,0.00,,,0.00,Rainwise IP-100,2013-09-06 10:41:00,
2013-09-06 06:46:00,42.6,43.0,29.96,SSE,157,1.0,2.0,100,0.00,,,0.00,Rainwise IP-100,2013-09-06 10:46:00,
2013-09-06 06:51:00,42.5,43.0,29.96,SSE,157,2.0,2.0,100,0.00,,,0.00,Rainwise IP-100,2013-09-06 10:51:00,
2013-09-06 06:56:00,42.6,43.0,29.96,SSE,157,2.0,3.0,100,0.00,,,0.00,Rainwise IP-100,2013-09-06 10:56:00,
2013-09-06 07:02:00,42.7,43.0,29.96,SSE,157,2.0,3.0,100,0.00,,,0.00,Rainwise IP-100,2013-09-06 11:02:00,
2013-09-06 07:07:00,42.7,43.0,29.97,SSE,157,2.0,2.0,100,0.00,,,0.00,Rainwise IP-100,2013-09-06 11:07:00,
2013-09-06 07:12:00,42.7,43.0,29.97,SSE,157,1.0,2.0,100,0.00,,,0.00,Rainwise IP-100,2013-09-06 11:12:00,
2013-09-06 07:17:00,42.8,43.0,29.97,SSE,157,1.0,3.0,100,0.00,,,0.00,Rainwise IP-100,2013-09-06 11:17:00,
2013-09-06 07:22:00,42.9,43.0,29.97,SSE,157,2.0,3.0,100,0.00,,,0.00,Rainwise IP-100,2013-09-06 11:22:00,
2013-09-06 07:27:00,43.2,43.0,29.97,SSE,157,2.0,4.0,100,0.00,,,0.00,Rainwise IP-100,2013-09-06 11:27:00,
2013-09-06 07:32:00,43.5,44.0,29.97,SSE,157,2.0,4.0,100,0.00,,,0.00,Rainwise IP-100,2013-09-06 11:32:00,
2013-09-06 07:37:00,43.6,44.0,29.97,SSE,157,3.0,3.0,100,0.00,,,0.00,Rainwise IP-100,2013-09-06 11:37:00,
2013-09-06 07:43:00,43.9,44.0,29.97,SSE,157,3.0,4.0,100,0.00,,,0.00,Rainwise IP-100,2013-09-06 11:43:00,
2013-09-06 07:48:00,44.2,44.0,29.97,SSE,157,2.0,3.0,100,0.00,,,0.00,Rainwise IP-100,2013-09-06 11:48:00,
2013-09-06 07:53:00,44.5,45.0,29.97,SSE,157,5.0,5.0,100,0.00,,,0.00,Rainwise IP-100,2013-09-06 11:53:00,
2013-09-06 07:58:00,44.7,45.0,29.97,SSE,157,0.0,6.0,100,0.00,,,0.00,Rainwise IP-100,2013-09-06 11:58:00,
2013-09-06 08:03:00,44.9,45.0,29.97,SSE,157,0.0,2.0,100,0.00,,,0.00,Rainwise IP-100,2013-09-06 12:03:00,
2013-09-06 08:08:00,45.2,45.0,29.97,SSE,157,0.0,2.0,100,0.00,,,0.00,Rainwise IP-100,2013-09-06 12:08:00,
2013-09-06 08:13:00,45.8,46.0,29.97,SSE,157,1.0,3.0,100,0.00,,,0.00,Rainwise IP-100,2013-09-06 12:13:00,
2013-09-06 08:19:00,46.2,46.0,29.98,SSE,157,1.0,4.0,100,0.00,,,0.00,Rainwise IP-100,2013-09-06 12:19:00,
2013-09-06 08:24:00,46.4,46.0,29.98,SSE,157,2.0,4.0,100,0.00,,,0.00,Rainwise IP-100,2013-09-06 12:24:00,
2013-09-06 08:29:00,46.8,47.0,29.98,SE,135,1.0,4.0,100,0.00,,,0.00,Rainwise IP-100,2013-09-06 12:29:00,
2013-09-06 08:34:00,47.2,47.0,29.98,SSE,157,0.0,4.0,100,0.00,,,0.00,Rainwise IP-100,2013-09-06 12:34:00,
2013-09-06 08:39:00,47.4,47.0,29.98,SSE,157,0.0,2.0,100,0.00,,,0.00,Rainwise IP-100,2013-09-06 12:39:00,
2013-09-06 08:44:00,47.7,47.0,29.98,SSE,157,0.0,1.0,100,0.00,,,0.00,Rainwise IP-100,2013-09-06 12:44:00,
2013-09-06 08:49:00,47.8,47.0,29.98,SSW,202,0.0,2.0,100,0.00,,,0.00,Rainwise IP-100,2013-09-06 12:49:00,
2013-09-06 08:54:00,47.8,47.0,29.98,SE,135,1.0,2.0,100,0.00,,,0.00,Rainwise IP-100,2013-09-06 12:54:00,
2013-09-06 09:00:00,48.2,48.0,29.99,SE,135,0.0,3.0,100,0.00,,,0.00,Rainwise IP-100,2013-09-06 13:00:00,
2013-09-06 09:05:00,48.5,49.0,29.99,NW,315,0.0,4.0,100,0.00,,,0.00,Rainwise IP-100,2013-09-06 13:05:00,
2013-09-06 09:10:00,48.8,49.0,29.99,WSW,247,1.0,5.0,100,0.00,,,0.00,Rainwise IP-100,2013-09-06 13:10:00,
2013-09-06 09:15:00,49.0,49.0,29.99,SE,135,0.0,3.0,100,0.00,,,0.00,Rainwise IP-100,2013-09-06 13:15:00,
2013-09-06 09:20:00,49.4,49.0,29.99,SSW,202,0.0,7.0,100,0.00,,,0.00,Rainwise IP-100,2013-09-06 13:20:00,
2013-09-06 09:25:00,50.3,50.0,29.99,SE,135,2.0,6.0,100,0.00,,,0.00,Rainwise IP-100,2013-09-06 13:25:00,
2013-09-06 09:30:00,51.1,51.0,29.99,West,270,1.0,6.0,100,0.00,,,0.00,Rainwise IP-100,2013-09-06 13:30:00,
2013-09-06 09:36:00,51.3,51.0,30.00,NE,45,1.0,4.0,100,0.00,,,0.00,Rainwise IP-100,2013-09-06 13:36:00,
2013-09-06 09:41:00,51.5,52.0,29.99,SSE,157,0.0,3.0,100,0.00,,,0.00,Rainwise IP-100,2013-09-06 13:41:00,
2013-09-06 09:46:00,51.7,52.0,29.99,West,270,2.0,3.0,100,0.00,,,0.00,Rainwise IP-100,2013-09-06 13:46:00,
2013-09-06 09:51:00,52.1,51.0,29.99,NNW,337,0.0,5.0,97,0.00,,,0.00,Rainwise IP-100,2013-09-06 13:51:00,
2013-09-06 09:56:00,52.4,50.0,29.99,NW,315,0.0,4.0,94,0.00,,,0.00,Rainwise IP-100,2013-09-06 13:56:00,
2013-09-06 10:01:00,52.7,50.0,29.99,West,270,0.0,3.0,90,0.00,,,0.00,Rainwise IP-100,2013-09-06 14:01:00,
2013-09-06 10:06:00,52.9,50.0,29.99,SSE,157,0.0,3.0,92,0.00,,,0.00,Rainwise IP-100,2013-09-06 14:06:00,
2013-09-06 10:11:00,53.3,50.0,29.99,SSE,157,0.0,3.0,90,0.00,,,0.00,Rainwise IP-100,2013-09-06 14:11:00,
2013-09-06 10:17:00,53.7,50.0,29.99,SSE,157,1.0,2.0,88,0.00,,,0.00,Rainwise IP-100,2013-09-06 14:17:00,
2013-09-06 10:22:00,54.3,49.0,29.99,North,360,0.0,5.0,83,0.00,,,0.00,Rainwise IP-100,2013-09-06 14:22:00,
2013-09-06 10:27:00,55.1,47.0,29.99,ESE,112,0.0,5.0,73,0.00,,,0.00,Rainwise IP-100,2013-09-06 14:27:00,
2013-09-06 10:32:00,56.3,49.0,29.99,SE,135,2.0,4.0,78,0.00,,,0.00,Rainwise IP-100,2013-09-06 14:32:00,
2013-09-06 10:37:00,57.9,50.0,29.99,ESE,112,0.0,6.0,76,0.00,,,0.00,Rainwise IP-100,2013-09-06 14:37:00,
2013-09-06 10:42:00,58.6,48.0,29.98,South,180,0.0,7.0,68,0.00,,,0.00,Rainwise IP-100,2013-09-06 14:42:00,
2013-09-06 10:47:00,58.4,47.0,29.99,NNW,337,2.0,4.0,66,0.00,,,0.00,Rainwise IP-100,2013-09-06 14:47:00,
2013-09-06 10:53:00,58.3,50.0,29.99,ESE,112,3.0,4.0,75,0.00,,,0.00,Rainwise IP-100,2013-09-06 14:53:00,
2013-09-06 10:58:00,58.2,47.0,29.99,SW,225,1.0,7.0,68,0.00,,,0.00,Rainwise IP-100,2013-09-06 14:58:00,
2013-09-06 11:03:00,58.4,47.0,29.99,East,90,1.0,4.0,66,0.00,,,0.00,Rainwise IP-100,2013-09-06 15:03:00,
2013-09-06 11:08:00,58.6,43.0,29.99,SE,135,1.0,8.0,55,0.00,,,0.00,Rainwise IP-100,2013-09-06 15:08:00,
2013-09-06 11:13:00,58.9,43.0,29.99,SE,135,4.0,6.0,55,0.00,,,0.00,Rainwise IP-100,2013-09-06 15:13:00,
2013-09-06 11:18:00,59.3,44.0,29.99,NW,315,1.0,7.0,57,0.00,,,0.00,Rainwise IP-100,2013-09-06 15:18:00,
2013-09-06 11:23:00,59.5,42.0,29.99,WSW,247,0.0,7.0,52,0.00,,,0.00,Rainwise IP-100,2013-09-06 15:23:00,
2013-09-06 11:28:00,59.7,45.0,29.99,ESE,112,0.0,4.0,58,0.00,,,0.00,Rainwise IP-100,2013-09-06 15:28:00,
2013-09-06 11:34:00,60.3,45.0,29.99,ESE,112,0.0,5.0,57,0.00,,,0.00,Rainwise IP-100,2013-09-06 15:34:00,
2013-09-06 11:39:00,60.8,41.0,29.99,SE,135,0.0,4.0,49,0.00,,,0.00,Rainwise IP-100,2013-09-06 15:39:00,
2013-09-06 11:44:00,60.9,40.0,29.99,ENE,67,0.0,6.0,47,0.00,,,0.00,Rainwise IP-100,2013-09-06 15:44:00,
2013-09-06 11:49:00,61.3,41.0,29.99,North,360,6.0,6.0,49,0.00,,,0.00,Rainwise IP-100,2013-09-06 15:49:00,
2013-09-06 11:54:00,62.6,44.0,29.99,East,90,0.0,6.0,51,0.00,,,0.00,Rainwise IP-100,2013-09-06 15:54:00,
2013-09-06 11:59:00,64.1,44.0,29.99,SE,135,4.0,6.0,49,0.00,,,0.00,Rainwise IP-100,2013-09-06 15:59:00,
2013-09-06 12:04:00,65.1,48.0,29.99,South,180,4.0,6.0,55,0.00,,,0.00,Rainwise IP-100,2013-09-06 16:04:00,
2013-09-06 12:10:00,66.2,47.0,29.99,West,270,0.0,6.0,49,0.00,,,0.00,Rainwise IP-100,2013-09-06 16:10:00,
2013-09-06 12:15:00,66.9,43.0,29.99,SW,225,6.0,6.0,42,0.00,,,0.00,Rainwise IP-100,2013-09-06 16:15:00,
2013-09-06 12:20:00,66.8,43.0,29.99,SW,225,1.0,7.0,43,0.00,,,0.00,Rainwise IP-100,2013-09-06 16:20:00,
2013-09-06 12:25:00,67.5,47.0,29.99,NW,315,2.0,6.0,48,0.00,,,0.00,Rainwise IP-100,2013-09-06 16:25:00,
2013-09-06 12:30:00,68.1,47.0,30.00,South,180,2.0,6.0,48,0.00,,,0.00,Rainwise IP-100,2013-09-06 16:30:00,
2013-09-06 12:31:00,68.1,51.0,30.00,WSW,247,2.0,6.0,55,0.00,,,0.00,Rainwise IP-100,2013-09-06 16:31:00,
2013-09-06 12:36:00,68.3,49.0,30.00,SSW,202,6.0,6.0,51,0.00,,,0.00,Rainwise IP-100,2013-09-06 16:36:00,
2013-09-06 12:42:00,68.2,49.0,30.00,SSW,202,3.0,7.0,51,0.00,,,0.00,Rainwise IP-100,2013-09-06 16:42:00,
2013-09-06 12:47:00,68.9,51.0,30.00,NNW,337,4.0,5.0,54,0.00,,,0.00,Rainwise IP-100,2013-09-06 16:47:00,
2013-09-06 12:52:00,69.3,50.0,29.99,South,180,1.0,6.0,51,0.00,,,0.00,Rainwise IP-100,2013-09-06 16:52:00,
2013-09-06 12:57:00,68.9,46.0,29.99,NNW,337,2.0,8.0,44,0.00,,,0.00,Rainwise IP-100,2013-09-06 16:57:00,
2013-09-06 13:02:00,69.5,46.0,29.99,SW,225,0.0,5.0,43,0.00,,,0.00,Rainwise IP-100,2013-09-06 17:02:00,
2013-09-06 13:07:00,70.5,53.0,29.99,East,90,4.0,4.0,53,0.00,,,0.00,Rainwise IP-100,2013-09-06 17:07:00,
2013-09-06 13:12:00,69.9,45.0,29.99,South,180,3.0,7.0,41,0.00,,,0.00,Rainwise IP-100,2013-09-06 17:12:00,
2013-09-06 13:17:00,70.3,51.0,29.99,SW,225,3.0,5.0,51,0.00,,,0.00,Rainwise IP-100,2013-09-06 17:17:00,
2013-09-06 13:23:00,70.1,47.0,29.99,ESE,112,1.0,8.0,45,0.00,,,0.00,Rainwise IP-100,2013-09-06 17:23:00,
2013-09-06 13:28:00,70.3,51.0,29.99,SSE,157,3.0,6.0,51,0.00,,,0.00,Rainwise IP-100,2013-09-06 17:28:00,
2013-09-06 13:33:00,69.2,45.0,29.99,SE,135,5.0,6.0,41,0.00,,,0.00,Rainwise IP-100,2013-09-06 17:33:00,
2013-09-06 13:38:00,69.9,47.0,29.99,North,360,2.0,6.0,45,0.00,,,0.00,Rainwise IP-100,2013-09-06 17:38:00,
2013-09-06 13:43:00,70.8,50.0,29.98,SW,225,5.0,5.0,49,0.00,,,0.00,Rainwise IP-100,2013-09-06 17:43:00,
2013-09-06 13:48:00,70.0,47.0,29.98,ESE,112,1.0,9.0,44,0.00,,,0.00,Rainwise IP-100,2013-09-06 17:48:00,
2013-09-06 13:53:00,70.2,46.0,29.98,SSE,157,0.0,6.0,42,0.00,,,0.00,Rainwise IP-100,2013-09-06 17:53:00,
2013-09-06 13:59:00,70.4,44.0,29.98,West,270,0.0,7.0,38,0.00,,,0.00,Rainwise IP-100,2013-09-06 17:59:00,
2013-09-06 14:04:00,71.2,49.0,29.98,SSW,202,1.0,5.0,46,0.00,,,0.00,Rainwise IP-100,2013-09-06 18:04:00,
2013-09-06 14:09:00,71.7,48.0,29.97,SSW,202,1.0,5.0,43,0.00,,,0.00,Rainwise IP-100,2013-09-06 18:09:00,
2013-09-06 14:14:00,71.6,47.0,29.97,SSW,202,4.0,7.0,41,0.00,,,0.00,Rainwise IP-100,2013-09-06 18:14:00,
2013-09-06 14:19:00,71.5,53.0,29.96,East,90,3.0,8.0,53,0.00,,,0.00,Rainwise IP-100,2013-09-06 18:19:00,
2013-09-06 14:24:00,71.7,53.0,29.96,WSW,247,1.0,6.0,52,0.00,,,0.00,Rainwise IP-100,2013-09-06 18:24:00,
2013-09-06 14:29:00,71.9,52.0,29.96,SE,135,2.0,6.0,49,0.00,,,0.00,Rainwise IP-100,2013-09-06 18:29:00,
2013-09-06 14:34:00,71.9,47.0,29.96,West,270,1.0,7.0,41,0.00,,,0.00,Rainwise IP-100,2013-09-06 18:34:00,
2013-09-06 14:40:00,72.1,49.0,29.96,SSE,157,1.0,6.0,44,0.00,,,0.00,Rainwise IP-100,2013-09-06 18:40:00,
2013-09-06 14:45:00,71.3,54.0,29.95,East,90,1.0,6.0,55,0.00,,,0.00,Rainwise IP-100,2013-09-06 18:45:00,
2013-09-06 14:50:00,70.4,49.0,29.94,NNW,337,5.0,6.0,46,0.00,,,0.00,Rainwise IP-100,2013-09-06 18:50:00,
2013-09-06 14:55:00,70.2,51.0,29.94,SW,225,2.0,6.0,51,0.00,,,0.00,Rainwise IP-100,2013-09-06 18:55:00,
2013-09-06 15:00:00,69.7,48.0,29.94,South,180,5.0,7.0,46,0.00,,,0.00,Rainwise IP-100,2013-09-06 19:00:00,
2013-09-06 15:05:00,69.3,47.0,29.94,SE,135,2.0,6.0,45,0.00,,,0.00,Rainwise IP-100,2013-09-06 19:05:00,
2013-09-06 15:10:00,69.3,47.0,29.94,NE,45,2.0,6.0,45,0.00,,,0.00,Rainwise IP-100,2013-09-06 19:10:00,
2013-09-06 15:16:00,69.4,47.0,29.93,SSE,157,4.0,6.0,46,0.00,,,0.00,Rainwise IP-100,2013-09-06 19:16:00,
2013-09-06 15:21:00,69.5,48.0,29.93,SSE,157,2.0,6.0,46,0.00,,,0.00,Rainwise IP-100,2013-09-06 19:21:00,
2013-09-06 15:26:00,69.2,50.0,29.92,ESE,112,1.0,6.0,50,0.00,,,0.00,Rainwise IP-100,2013-09-06 19:26:00,
2013-09-06 15:31:00,69.1,51.0,29.92,SE,135,1.0,6.0,53,0.00,,,0.00,Rainwise IP-100,2013-09-06 19:31:00,
2013-09-06 15:36:00,68.9,49.0,29.92,South,180,2.0,5.0,49,0.00,,,0.00,Rainwise IP-100,2013-09-06 19:36:00,
2013-09-06 15:41:00,68.9,48.0,29.92,SSE,157,2.0,7.0,48,0.00,,,0.00,Rainwise IP-100,2013-09-06 19:41:00,
2013-09-06 15:46:00,68.9,50.0,29.92,ESE,112,3.0,6.0,51,0.00,,,0.00,Rainwise IP-100,2013-09-06 19:46:00,
2013-09-06 15:51:00,68.9,52.0,29.92,SE,135,3.0,4.0,55,0.00,,,0.00,Rainwise IP-100,2013-09-06 19:51:00,
2013-09-06 15:57:00,68.8,50.0,29.92,South,180,0.0,5.0,51,0.00,,,0.00,Rainwise IP-100,2013-09-06 19:57:00,
2013-09-06 16:02:00,68.8,50.0,29.92,SE,135,2.0,5.0,53,0.00,,,0.00,Rainwise IP-100,2013-09-06 20:02:00,
2013-09-06 16:07:00,68.7,53.0,29.91,ESE,112,0.0,6.0,57,0.00,,,0.00,Rainwise IP-100,2013-09-06 20:07:00,
2013-09-06 16:12:00,68.6,50.0,29.91,South,180,0.0,5.0,51,0.00,,,0.00,Rainwise IP-100,2013-09-06 20:12:00,
2013-09-06 16:17:00,68.6,49.0,29.90,SSE,157,6.0,9.0,50,0.00,,,0.00,Rainwise IP-100,2013-09-06 20:17:00,
2013-09-06 16:22:00,68.4,50.0,29.90,SE,135,0.0,6.0,51,0.00,,,0.00,Rainwise IP-100,2013-09-06 20:22:00,
2013-09-06 16:27:00,68.3,47.0,29.90,South,180,0.0,7.0,46,0.00,,,0.00,Rainwise IP-100,2013-09-06 20:27:00,
2013-09-06 16:33:00,68.2,50.0,29.90,ESE,112,0.0,4.0,54,0.00,,,0.00,Rainwise IP-100,2013-09-06 20:33:00,
2013-09-06 16:38:00,67.9,47.0,29.90,South,180,2.0,6.0,47,0.00,,,0.00,Rainwise IP-100,2013-09-06 20:38:00,
2013-09-06 16:43:00,67.9,50.0,29.90,SSE,157,1.0,5.0,54,0.00,,,0.00,Rainwise IP-100,2013-09-06 20:43:00,
2013-09-06 16:48:00,67.9,49.0,29.90,SSE,157,4.0,6.0,50,0.00,,,0.00,Rainwise IP-100,2013-09-06 20:48:00,
2013-09-06 16:53:00,67.7,47.0,29.90,South,180,1.0,5.0,47,0.00,,,0.00,Rainwise IP-100,2013-09-06 20:53:00,
2013-09-06 16:58:00,67.6,49.0,29.90,SSE,157,3.0,6.0,51,0.00,,,0.00,Rainwise IP-100,2013-09-06 20:58:00,
2013-09-06 17:03:00,67.4,47.0,29.89,South,180,3.0,5.0,47,0.00,,,0.00,Rainwise IP-100,2013-09-06 21:03:00,
2013-09-06 17:08:00,67.3,47.0,29.89,SSE,157,1.0,4.0,49,0.00,,,0.00,Rainwise IP-100,2013-09-06 21:08:00,
2013-09-06 17:14:00,67.0,50.0,29.88,South,180,4.0,5.0,54,0.00,,,0.00,Rainwise IP-100,2013-09-06 21:14:00,
2013-09-06 17:19:00,66.7,48.0,29.88,South,180,2.0,4.0,51,0.00,,,0.00,Rainwise IP-100,2013-09-06 21:19:00,
2013-09-06 17:24:00,66.8,48.0,29.88,SSE,157,3.0,6.0,51,0.00,,,0.00,Rainwise IP-100,2013-09-06 21:24:00,
2013-09-06 17:29:00,66.5,50.0,29.88,SE,135,2.0,4.0,54,0.00,,,0.00,Rainwise IP-100,2013-09-06 21:29:00,
2013-09-06 17:34:00,66.3,49.0,29.88,SSE,157,4.0,5.0,54,0.00,,,0.00,Rainwise IP-100,2013-09-06 21:34:00,
2013-09-06 17:39:00,65.9,49.0,29.88,SSE,157,2.0,6.0,55,0.00,,,0.00,Rainwise IP-100,2013-09-06 21:39:00,
2013-09-06 17:44:00,65.6,51.0,29.87,SSE,157,4.0,4.0,60,0.00,,,0.00,Rainwise IP-100,2013-09-06 21:44:00,
2013-09-06 17:46:00,65.2,49.0,29.87,SSE,157,0.0,4.0,57,0.00,,,0.00,Rainwise IP-100,2013-09-06 21:46:00,
2013-09-06 17:47:00,65.1,49.0,29.87,SSE,157,1.0,5.0,57,0.00,,,0.00,Rainwise IP-100,2013-09-06 21:47:00,
2013-09-06 17:52:00,64.9,50.0,29.87,SE,135,3.0,6.0,60,0.00,,,0.00,Rainwise IP-100,2013-09-06 21:52:00,
2013-09-06 17:57:00,64.7,50.0,29.87,SSE,157,4.0,4.0,59,0.00,,,0.00,Rainwise IP-100,2013-09-06 21:57:00,
2013-09-06 18:02:00,64.4,52.0,29.87,South,180,3.0,6.0,64,0.00,,,0.00,Rainwise IP-100,2013-09-06 22:02:00,
2013-09-06 18:07:00,64.1,50.0,29.87,SSE,157,1.0,6.0,60,0.00,,,0.00,Rainwise IP-100,2013-09-06 22:07:00,
2013-09-06 18:12:00,63.9,50.0,29.87,SSE,157,3.0,5.0,60,0.00,,,0.00,Rainwise IP-100,2013-09-06 22:12:00,
2013-09-06 18:17:00,63.7,50.0,29.86,SSE,157,3.0,5.0,62,0.00,,,0.00,Rainwise IP-100,2013-09-06 22:17:00,
2013-09-06 18:22:00,63.6,51.0,29.86,South,180,1.0,6.0,64,0.00,,,0.00,Rainwise IP-100,2013-09-06 22:22:00,
2013-09-06 18:27:00,63.3,51.0,29.86,SE,135,2.0,4.0,65,0.00,,,0.00,Rainwise IP-100,2013-09-06 22:27:00,
2013-09-06 18:33:00,63.1,52.0,29.86,SE,135,0.0,4.0,67,0.00,,,0.00,Rainwise IP-100,2013-09-06 22:33:00,
2013-09-06 18:38:00,62.7,50.0,29.86,SE,135,2.0,6.0,65,0.00,,,0.00,Rainwise IP-100,2013-09-06 22:38:00,
2013-09-06 18:43:00,62.5,50.0,29.86,South,180,2.0,4.0,64,0.00,,,0.00,Rainwise IP-100,2013-09-06 22:43:00,
2013-09-06 18:48:00,62.2,51.0,29.86,SE,135,2.0,3.0,67,0.00,,,0.00,Rainwise IP-100,2013-09-06 22:48:00,
2013-09-06 18:53:00,61.9,52.0,29.86,SSE,157,2.0,5.0,69,0.00,,,0.00,Rainwise IP-100,2013-09-06 22:53:00,
2013-09-06 18:58:00,61.7,52.0,29.86,South,180,3.0,4.0,70,0.00,,,0.00,Rainwise IP-100,2013-09-06 22:58:00,
2013-09-06 19:03:00,61.6,52.0,29.86,ESE,112,1.0,4.0,70,0.00,,,0.00,Rainwise IP-100,2013-09-06 23:03:00,
2013-09-06 19:08:00,61.3,52.0,29.86,ESE,112,2.0,4.0,72,0.00,,,0.00,Rainwise IP-100,2013-09-06 23:08:00,
2013-09-06 19:14:00,61.1,52.0,29.86,ESE,112,1.0,3.0,72,0.00,,,0.00,Rainwise IP-100,2013-09-06 23:14:00,
2013-09-06 19:19:00,60.9,52.0,29.86,ESE,112,1.0,3.0,72,0.00,,,0.00,Rainwise IP-100,2013-09-06 23:19:00,
2013-09-06 19:24:00,60.6,52.0,29.86,ESE,112,1.0,2.0,74,0.00,,,0.00,Rainwise IP-100,2013-09-06 23:24:00,
2013-09-06 19:29:00,60.6,53.0,29.86,ESE,112,1.0,3.0,75,0.00,,,0.00,Rainwise IP-100,2013-09-06 23:29:00,
2013-09-06 19:34:00,60.4,52.0,29.86,SE,135,2.0,2.0,73,0.00,,,0.00,Rainwise IP-100,2013-09-06 23:34:00,
2013-09-06 19:39:00,60.1,51.0,29.86,SE,135,1.0,3.0,74,0.00,,,0.00,Rainwise IP-100,2013-09-06 23:39:00,
2013-09-06 19:44:00,59.9,52.0,29.85,SE,135,1.0,3.0,75,0.00,,,0.00,Rainwise IP-100,2013-09-06 23:44:00,
2013-09-06 19:50:00,59.7,52.0,29.85,SE,135,1.0,2.0,76,0.00,,,0.00,Rainwise IP-100,2013-09-06 23:50:00,
2013-09-06 19:55:00,59.6,52.0,29.85,SE,135,2.0,3.0,76,0.00,,,0.00,Rainwise IP-100,2013-09-06 23:55:00,
2013-09-06 20:00:00,59.4,51.0,29.85,SE,135,2.0,4.0,75,0.00,,,0.00,Rainwise IP-100,2013-09-07 00:00:00,
2013-09-06 20:05:00,58.9,51.0,29.84,SE,135,1.0,4.0,75,0.00,,,0.00,Rainwise IP-100,2013-09-07 00:05:00,
2013-09-06 20:10:00,58.8,50.0,29.84,SE,135,1.0,3.0,73,0.00,,,0.00,Rainwise IP-100,2013-09-07 00:10:00,
2013-09-06 20:15:00,58.6,50.0,29.85,SE,135,1.0,3.0,74,0.00,,,0.00,Rainwise IP-100,2013-09-07 00:15:00,
2013-09-06 20:20:00,58.4,50.0,29.85,SE,135,0.0,2.0,76,0.00,,,0.00,Rainwise IP-100,2013-09-07 00:20:00,
2013-09-06 20:25:00,58.1,50.0,29.85,SE,135,1.0,2.0,76,0.00,,,0.00,Rainwise IP-100,2013-09-07 00:25:00,
2013-09-06 20:31:00,57.8,50.0,29.85,SE,135,0.0,2.0,77,0.00,,,0.00,Rainwise IP-100,2013-09-07 00:31:00,
2013-09-06 20:36:00,57.6,50.0,29.85,SE,135,1.0,3.0,78,0.00,,,0.00,Rainwise IP-100,2013-09-07 00:36:00,
2013-09-06 20:41:00,57.5,50.0,29.85,SE,135,2.0,3.0,77,0.00,,,0.00,Rainwise IP-100,2013-09-07 00:41:00,
2013-09-06 20:46:00,57.3,49.0,29.84,SE,135,1.0,3.0,74,0.00,,,0.00,Rainwise IP-100,2013-09-07 00:46:00,
2013-09-06 20:51:00,57.2,49.0,29.84,SE,135,1.0,4.0,74,0.00,,,0.00,Rainwise IP-100,2013-09-07 00:51:00,
2013-09-06 20:56:00,57.1,49.0,29.84,SE,135,2.0,3.0,75,0.00,,,0.00,Rainwise IP-100,2013-09-07 00:56:00,
2013-09-06 21:01:00,56.9,50.0,29.84,SE,135,1.0,4.0,76,0.00,,,0.00,Rainwise IP-100,2013-09-07 01:01:00,
2013-09-06 21:07:00,56.9,50.0,29.84,SE,135,2.0,4.0,78,0.00,,,0.00,Rainwise IP-100,2013-09-07 01:07:00,
2013-09-06 21:12:00,56.9,50.0,29.84,SE,135,1.0,3.0,79,0.00,,,0.00,Rainwise IP-100,2013-09-07 01:12:00,
2013-09-06 21:17:00,56.9,50.0,29.83,SE,135,1.0,4.0,76,0.00,,,0.00,Rainwise IP-100,2013-09-07 01:17:00,
2013-09-06 21:22:00,56.8,50.0,29.83,SSE,157,2.0,4.0,79,0.00,,,0.00,Rainwise IP-100,2013-09-07 01:22:00,
2013-09-06 21:27:00,56.7,50.0,29.84,SE,135,0.0,3.0,79,0.00,,,0.00,Rainwise IP-100,2013-09-07 01:27:00,
2013-09-06 21:32:00,56.6,50.0,29.83,SSE,157,2.0,4.0,79,0.00,,,0.00,Rainwise IP-100,2013-09-07 01:32:00,
2013-09-06 21:37:00,56.5,50.0,29.83,SSE,157,2.0,4.0,80,0.00,,,0.00,Rainwise IP-100,2013-09-07 01:37:00,
2013-09-06 21:42:00,56.4,50.0,29.83,SSE,157,1.0,4.0,81,0.00,,,0.00,Rainwise IP-100,2013-09-07 01:42:00,
2013-09-06 21:48:00,56.4,50.0,29.83,SE,135,0.0,4.0,81,0.00,,,0.00,Rainwise IP-100,2013-09-07 01:48:00,
2013-09-06 21:53:00,56.3,50.0,29.83,SE,135,0.0,3.0,82,0.00,,,0.00,Rainwise IP-100,2013-09-07 01:53:00,
2013-09-06 21:58:00,56.1,50.0,29.83,SE,135,3.0,5.0,82,0.00,,,0.00,Rainwise IP-100,2013-09-07 01:58:00,
2013-09-06 22:03:00,56.0,51.0,29.83,SE,135,3.0,3.0,84,0.00,,,0.00,Rainwise IP-100,2013-09-07 02:03:00,
2013-09-06 22:08:00,56.0,52.0,29.83,SE,135,1.0,3.0,86,0.00,,,0.00,Rainwise IP-100,2013-09-07 02:08:00,
2013-09-06 22:13:00,56.0,51.0,29.83,SSE,157,2.0,4.0,84,0.00,,,0.00,Rainwise IP-100,2013-09-07 02:13:00,
2013-09-06 22:18:00,55.9,51.0,29.83,SSE,157,0.0,4.0,84,0.00,,,0.00,Rainwise IP-100,2013-09-07 02:18:00,
2013-09-06 22:24:00,55.9,51.0,29.83,SSE,157,2.0,4.0,84,0.00,,,0.00,Rainwise IP-100,2013-09-07 02:24:00,
2013-09-06 22:29:00,55.9,52.0,29.83,SSE,157,1.0,3.0,86,0.00,,,0.00,Rainwise IP-100,2013-09-07 02:29:00,
2013-09-06 22:34:00,55.9,52.0,29.83,SSE,157,1.0,4.0,86,0.00,,,0.00,Rainwise IP-100,2013-09-07 02:34:00,
2013-09-06 22:39:00,55.8,53.0,29.83,SE,135,2.0,5.0,88,0.00,,,0.00,Rainwise IP-100,2013-09-07 02:39:00,
2013-09-06 22:44:00,56.0,53.0,29.82,SE,135,3.0,4.0,89,0.00,,,0.00,Rainwise IP-100,2013-09-07 02:44:00,
2013-09-06 22:49:00,56.1,53.0,29.83,SE,135,2.0,4.0,89,0.00,,,0.00,Rainwise IP-100,2013-09-07 02:49:00,
2013-09-06 22:54:00,56.0,53.0,29.82,SSE,157,2.0,5.0,88,0.00,,,0.00,Rainwise IP-100,2013-09-07 02:54:00,
2013-09-06 22:59:00,55.9,53.0,29.82,SE,135,0.0,4.0,88,0.00,,,0.00,Rainwise IP-100,2013-09-07 02:59:00,
2013-09-06 23:05:00,55.9,53.0,29.82,ESE,112,1.0,3.0,89,0.00,,,0.00,Rainwise IP-100,2013-09-07 03:05:00,
2013-09-06 23:10:00,55.8,53.0,29.82,ESE,112,1.0,3.0,89,0.00,,,0.00,Rainwise IP-100,2013-09-07 03:10:00,
2013-09-06 23:15:00,55.7,53.0,29.82,ESE,112,2.0,2.0,91,0.00,,,0.00,Rainwise IP-100,2013-09-07 03:15:00,
2013-09-06 23:20:00,55.4,53.0,29.82,South,180,2.0,2.0,92,0.00,,,0.00,Rainwise IP-100,2013-09-07 03:20:00,
2013-09-06 23:25:00,55.1,53.0,29.82,SSE,157,1.0,4.0,93,0.00,,,0.00,Rainwise IP-100,2013-09-07 03:25:00,
2013-09-06 23:30:00,54.9,53.0,29.82,SSE,157,2.0,4.0,94,0.00,,,0.00,Rainwise IP-100,2013-09-07 03:30:00,
2013-09-06 23:35:00,54.9,54.0,29.82,SSE,157,1.0,3.0,96,0.00,,,0.00,Rainwise IP-100,2013-09-07 03:35:00,
2013-09-06 23:41:00,54.7,53.0,29.81,SSE,157,1.0,4.0,96,0.00,,,0.00,Rainwise IP-100,2013-09-07 03:41:00,
2013-09-06 23:46:00,54.6,53.0,29.81,SSE,157,2.0,3.0,96,0.00,,,0.00,Rainwise IP-100,2013-09-07 03:46:00,
2013-09-06 23:51:00,54.4,54.0,29.81,SSE,157,1.0,3.0,98,0.00,,,0.00,Rainwise IP-100,2013-09-07 03:51:00,
2013-09-06 23:56:00,54.3,54.0,29.80,NE,45,0.0,2.0,99,0.00,,,0.00,Rainwise IP-100,2013-09-07 03:56:00,